Regional Weather Roundup
Issued by NWS

Home | Current Version | Previous Version | Graphics & Text | Print | Product List | Glossary On
Versions: 1 2 3 4 5 6 7 8 9 10 11 12 13 14 15 16 17 18 19 20 21 22 23 24 25 26 27 28 29 30 31 32 33 34 35 36 37 38 39 40 41 42 43 44 45 46 47 48 49 50
000
ASUS45 KABQ 270110
RWRNM
NEW MEXICO REGIONAL WEATHER ROUNDUP
NATIONAL WEATHER SERVICE ALBUQUERQUE NM
700 PM MDT WED JUL 26 2017

NOTE: "FAIR" MEANS FEW OR NO CLOUDS BELOW 12,000 FEET AGL WITH NO
       SIGNIFICANT WEATHER OR OBSTRUCTIONS TO VISION.

      THIS PRODUCT IS RELEASED AS TWO VERSIONS.  ONE VERSION NEAR
      THE TOP OF THE HOUR CONTAINING PRELIMINARY DATA FROM ALBUQUERQUE
      AND OTHER STATIONS.  A FINAL VERSION WITH ADDITIONAL DATA IS
      ISSUED ABOUT 10 MINUTES AFTER THE HOUR.

NMZ501-503-504-510>518-270200-
NORTHWEST PLATEAU/NORTHCENTRAL MOUNTAINS

CITY           SKY/WX    TMP DP  RH WIND       PRES   REMARKS
FARMINGTON     FAIR      88  52  29 W15       30.14S
LOS ALAMOS     FAIR      79  52  38 CALM      30.30R
SANTA FE       FAIR      86  50  28 NE6       30.19R THUNDER
TAOS           FAIR      82  46  28 CALM      30.26R
ANGEL FIRE     FAIR      68  53  58 SE12      30.42S

$$
NMZ402-403-502-505>509-270200-
WESTCENTRAL MOUNTAINS/SOUTHWEST MOUNTAINS

CITY           SKY/WX    TMP DP  RH WIND       PRES   REMARKS
GALLUP         FAIR      84  49  29 SW7       30.24S
GRANTS         PTSUNNY   85  45  25 CALM      30.24S
SILVER CITY    FAIR      75  58  54 NW7       30.16F

$$
NMZ407-409-411-412-270200-
SOUTHERN DESERTS

CITY           SKY/WX    TMP DP  RH WIND       PRES   REMARKS
DEMING         FAIR      86  60  41 NW15G22   30.06F
LAS CRUCES     FAIR      91  54  29 SE8       30.08S
HOLLOMAN AFB   FAIR      95  56  26 S20G25    30.07R
ALAMOGORDO     FAIR      90  57  33 S17G25    30.07R
T OR C         FAIR      88  57  34 E6        30.09F

$$
NMZ519>523-270200-
CENTRAL VALLEYS/CENTRAL HIGHLANDS

CITY           SKY/WX    TMP DP  RH WIND       PRES   REMARKS
ALBUQUERQUE    PTSUNNY   93  50  23 W7        30.11S
DOUBLE EAGLE   PTSUNNY   91  50  24 NW7       30.16S
MORIARTY ARPT  FAIR      89  47  24 CALM      30.20S
CLINES CORNERS FAIR      85  43  22 MISG      30.26S
BELEN          FAIR      92  46  20 CALM      30.11S
SOCORRO        FAIR      90  52  27 SW5       30.10R

$$
NMZ524>526-539-540-270200-
SOUTHCENTRAL MOUNTAINS

CITY           SKY/WX    TMP DP  RH WIND       PRES   REMARKS
RUIDOSO        CLOUDY    64  61  88 SW8       30.32S

$$
NMZ527>531-270200-
NORTHEAST HIGHLANDS/NORTHEAST PLAINS

CITY           SKY/WX    TMP DP  RH WIND       PRES   REMARKS
RATON          NOT AVBL
CLAYTON        PTSUNNY   81  60  48 MISG      30.13F

$$
NMZ532>537-270200-
EASTCENTRAL PLAINS

CITY           SKY/WX    TMP DP  RH WIND       PRES   REMARKS
SANTA ROSA     FAIR      86  55  34 S10       30.06S
TUCUMCARI      FAIR      87  63  44 S10G23    30.00R
CANNON AFB     FAIR      89  59  36 S12       30.08R
CLOVIS AIRPORT FAIR      88  61  40 S13       30.08R

$$
NMZ028-029-538-270200-
SOUTHEAST PLAINS

CITY           SKY/WX    TMP DP  RH WIND       PRES   REMARKS
ROSWELL        FAIR      90  56  31 NE5       30.02R
ARTESIA        FAIR      88  63  42 SE20      30.00R
CARLSBAD       TSTM      83  68  60 N14G24    30.00R
HOBBS          FAIR      91  50  24 SE18      30.05R


$$




USA.gov is the U.S. government's official web portal to all federal, state and local government web resources and services.